STARLINK-1130 (DARKSAT) (44932 NORAD) Tracking and Keplerian Element Data

This shows tracking and keplerian element data for the satellite.

Feedback or suggestion? Click here.




ElementValue
Catalog44932
NameSTARLINK-1130 (DARKSAT)
Epoch Orbit839
Epoch Day53.25001157
Epoch Year2020
RAAN175.8963
Inclination52.997
Eccentricity0.0001438
Argument of Perigee75.9518
Mean Anonmoly181.3978
Mean Motion15.05631444
Decay Rate-0.00039877
L11 44932U 20001U 20053.25001157 -.00039877 00000-0 -27293-2 0 9997
L22 44932 52.9970 175.8963 0001438 75.9518 181.3978 15.05631444 8396

Live tracking and technical data element details for STARLINK-1130 (DARKSAT) (NORAD 44932). STARLINK-1130 (DARKSAT) can be tracked NOW for your location showing map with azimuth and elevation plus other details from your city location.

Track the satellite on the map from your city or location and see movement details for azimuth, elevation, latitude, longitude, range, height, and movement on the map or in text.







IsCatalogInMostPopularTable: catalog: 44932, numindb: 30
Update: records affected: 1



GetName: 44932 STARLINK-1130 (DARKSAT)

Hit Count: updated at: Wed, 26 Feb 2020 17:10:09 GMT